Regional Weather Roundup
Issued by NWS Sioux Falls, SD

Home | Current Version | Previous Version | Text Only | Print | Product List | Glossary Off
Versions: 1 2 3 4 5 6 7 8 9 10 11 12 13 14 15 16 17 18 19 20 21 22 23 24 25 26 27 28 29 30 31 32 33 34 35 36 37 38 39 40 41 42 43 44 45 46 47 48 49 50

000
ASUS43 KFSD 030602
RWRFSD

WEATHER ROUNDUP FOR SE SOUTH DAKOTA/SW MINNESOTA/NW IOWA
NATIONAL WEATHER SERVICE SIOUX FALLS SD
100 AM CDT THU SEP 03 2015

NOTE: "FAIR" INDICATES FEW OR NO CLOUDS BELOW 12,000 FEET WITH NO
SIGNIFICANT WEATHER AND OR OBSTRUCTIONS TO VISIBILITY.


SDZ038>040-050-052>070-030700-
SOUTHEAST SOUTH DAKOTA

CITY           SKY/WX    TMP DP  RH WIND       PRES   REMARKS
BROOKINGS      FAIR      73  70  88 SE13      29.86S
CHAMBERLAIN    CLEAR     73  67  82 E6        29.76S
6HR MIN TEMP:  73; 6HR MAX TEMP:  87;

HURON          CLEAR     74  71  91 SE10      29.76F
6HR MIN TEMP:  74; 6HR MAX TEMP:  87;

MADISON        FAIR      70  70 100 SE8       29.85S
MITCHELL       CLEAR     73  71  93 SE10      29.79S
6HR MIN TEMP:  73; 6HR MAX TEMP:  88;

SIOUX FALLS    FAIR      73  70  90 SE8       29.84F
6HR MIN TEMP:  73; 6HR MAX TEMP:  83;

WINNER         FAIR      80  57  45 S14       29.77F
YANKTON        FAIR      72  70  94 SE3       29.80F
$$

MNZ071-072-080-081-089-090-097-098-030700-
SOUTHWEST MINNESOTA

CITY           SKY/WX    TMP DP  RH WIND       PRES   REMARKS
FAIRMONT       FAIR      70  63  78 S3        29.89S
JACKSON        FAIR      72  70  94 S6        29.89F
LUVERNE        FAIR      72  68  88 SE3       29.86F
MARSHALL       FAIR      72  66  83 SE7       29.87S
6HR MIN TEMP:  72; 6HR MAX TEMP:  82;

MONTEVIDEO     FAIR      70  70 100 SE7       29.87F FOG
PIPESTONE      FAIR      72  70  94 SE6       29.87F
REDWOOD FALLS  FAIR      72  70  93 E5        29.87R FOG
TRACY          FAIR      70  69  97 SE5       29.87F FOG
WINDOM         FAIR      73  70  88 CALM      29.89S
WORTHINGTON    FAIR      70  66  88 SE5       29.88F
$$

IAZ001>003-012>014-020>022-031-032-NEZ013-014-SDZ071-030700-
NORTHWEST IOWA

CITY           SKY/WX    TMP DP  RH WIND       PRES   REMARKS
DENISON        FAIR      75  70  83 S12       29.87S
ESTHERVILLE    FAIR      69  68  96 S5        29.89S
SIOUX CITY     FAIR      72  68  87 SE8       29.84S
6HR MIN TEMP:  72; 6HR MAX TEMP:  84;

SPENCER        FOG       71  68  90 S3        29.88S VSB 1
6HR MIN TEMP:  71; 6HR MAX TEMP:  81;

$$

ABBREVIATIONS USED IN REMARKS
   TC - TEMPERATURE IN CELSIUS
  WCI - WIND CHILL INDEX
   HX - HEAT INDEX
  VSB - VISIBILITY



USA.gov is the U.S. government's official web portal to all federal, state and local government web resources and services.